Weather History for Mammoth, CA

Change the Weather History Date:

Tuesday, September 3, 2013

  Actual Average Record
Temperature  
Mean Temperature 60 °F -  
Max Temperature 73 °F 71 °F 84 °F (2007)
Min Temperature 48 °F 55 °F 35 °F (2010)
Degree Days  
Heating Degree Days 4    
Growing Degree Days 10 (Base 50)    
Moisture  
Dew Point 45 °F    
Average Humidity 60    
Maximum Humidity 100    
Minimum Humidity 29    
Precipitation  
Precipitation 0.38 in - - ()
Sea Level Pressure  
Sea Level Pressure 30.26 in    
Wind  
Wind Speed 5 mph (WSW)    
Max Wind Speed 20 mph    
Max Gust Speed 28 mph    
Visibility 10 miles    
Events Rain    
Averages and records for this station are not official NWS values.
T = Trace of Precipitation, MM = Missing Value Source: NWS Daily Summary

Daily Weather History Graph

Daily Weather History Graph

Search for Another Location

Airport:

Trip Planner

Search our weather history database for the weather conditions in past years. The results will help you decide how hot, cold, wet, or windy it might be!

Date:

Astronomy

Sep. 03, 2013 Rise Set
Actual Time 6:27 AM PDT 7:20 PM PDT
Civil Twilight 6:00 AM PDT 7:47 PM PDT
Nautical Twilight 5:29 AM PDT 8:19 PM PDT
Astronomical Twilight 4:56 AM PDT 8:51 PM PDT
Moon 4:46 AM PDT 6:10 PM PDT
Length of Visible Light 13h 46m
Length of Day
12h 53m
Waning Crescent, 3% of the Moon is Illuminated
Sep 3
Waning Crescent
Sep 5
New
Sep 12
First Quarter
Sep 19
Full
Sep 26
Last Quarter

Hourly Weather History & Observations

Time (PDT) Temp. Dew Point Humidity Pressure Visibility Wind Dir Wind Speed Gust Speed Precip Events Conditions
12:15 AM 62.6 °F 44.6 °F 52% 30.25 in 10.0 mi South 6.9 mph - N/A Rain Light Rain
12:35 AM 62.6 °F 42.8 °F 48% 30.24 in 10.0 mi South 6.9 mph - N/A Rain Light Rain
12:55 AM 64.4 °F 41.0 °F 42% 30.24 in 10.0 mi SSW 11.5 mph 20.7 mph N/A   Overcast
1:15 AM 66.2 °F 39.2 °F 37% 30.24 in 10.0 mi South 10.4 mph - N/A   Overcast
1:35 AM 60.8 °F 44.6 °F 55% 30.24 in 10.0 mi East 5.8 mph - N/A   Overcast
1:55 AM 60.8 °F 44.6 °F 55% 30.24 in 10.0 mi Calm Calm - N/A   Overcast
2:15 AM 60.8 °F 44.6 °F 55% 30.24 in 10.0 mi East 6.9 mph - N/A   Overcast
2:35 AM 60.8 °F 44.6 °F 55% 30.24 in 10.0 mi Calm Calm - N/A   Overcast
2:55 AM 60.8 °F 44.6 °F 55% 30.23 in 10.0 mi Calm Calm - N/A   Overcast
3:15 AM 59.0 °F 42.8 °F 55% 30.23 in 10.0 mi North 4.6 mph - N/A   Overcast
3:35 AM 60.8 °F 42.8 °F 52% 30.24 in 10.0 mi WSW 3.5 mph - N/A   Overcast
3:55 AM 64.4 °F 39.2 °F 40% 30.23 in 10.0 mi SW 6.9 mph - N/A   Overcast
4:15 AM 64.4 °F 39.2 °F 40% 30.23 in 10.0 mi South 5.8 mph - N/A   Overcast
4:35 AM 62.6 °F 44.6 °F 52% 30.22 in 10.0 mi ESE 6.9 mph - N/A   Overcast
4:55 AM 60.8 °F 44.6 °F 55% 30.22 in 10.0 mi ESE 6.9 mph - N/A   Mostly Cloudy
5:15 AM 60.8 °F 46.4 °F 59% 30.23 in 10.0 mi Calm Calm - N/A   Scattered Clouds
5:35 AM 59.0 °F 44.6 °F 59% 30.23 in 10.0 mi Calm Calm - N/A   Mostly Cloudy
5:55 AM 59.0 °F 42.8 °F 55% 30.23 in 10.0 mi Calm Calm - N/A   Overcast
6:15 AM 57.2 °F 42.8 °F 59% 30.24 in 10.0 mi Calm Calm - N/A   Overcast
6:35 AM 55.4 °F 42.8 °F 63% 30.24 in 10.0 mi NNW 4.6 mph - N/A   Mostly Cloudy
6:55 AM 57.2 °F 41.0 °F 55% 30.25 in 10.0 mi Calm Calm - N/A   Mostly Cloudy
7:15 AM 55.4 °F 41.0 °F 58% 30.25 in 10.0 mi Calm Calm - N/A   Mostly Cloudy
7:35 AM 59.0 °F 42.8 °F 55% 30.25 in 10.0 mi Calm Calm - N/A   Mostly Cloudy
7:55 AM 60.8 °F 42.8 °F 52% 30.26 in 10.0 mi Calm Calm - N/A   Overcast
8:15 AM 62.6 °F 42.8 °F 48% 30.26 in 10.0 mi Calm Calm - N/A   Mostly Cloudy
8:35 AM 64.4 °F 42.8 °F 45% 30.26 in 10.0 mi Calm Calm - N/A   Overcast
8:55 AM 64.4 °F 42.8 °F 45% 30.27 in 10.0 mi ESE 4.6 mph - N/A   Overcast
9:15 AM 64.4 °F 42.8 °F 45% 30.27 in 10.0 mi SE 3.5 mph - N/A   Overcast
9:35 AM 62.6 °F 44.6 °F 52% 30.28 in 10.0 mi East 4.6 mph - N/A   Overcast
9:55 AM 66.2 °F 42.8 °F 43% 30.28 in 10.0 mi East 6.9 mph - N/A   Overcast
10:15 AM 68.0 °F 41.0 °F 37% 30.28 in 10.0 mi East 5.8 mph - N/A   Overcast
10:35 AM 68.0 °F 41.0 °F 37% 30.28 in 10.0 mi East 3.5 mph - N/A   Overcast
10:55 AM 68.0 °F 41.0 °F 37% 30.29 in 10.0 mi ENE 4.6 mph - N/A   Overcast
11:15 AM 69.8 °F 41.0 °F 35% 30.29 in 10.0 mi WNW 6.9 mph - N/A   Mostly Cloudy
11:35 AM 71.6 °F 41.0 °F 33% 30.28 in 10.0 mi NW 6.9 mph - N/A   Mostly Cloudy
11:55 AM 69.8 °F 41.0 °F 35% 30.28 in 10.0 mi West 3.5 mph - N/A   Overcast
12:15 PM 69.8 °F 41.0 °F 35% 30.28 in 10.0 mi East 5.8 mph - N/A   Overcast
12:35 PM 71.6 °F 41.0 °F 33% 30.27 in 10.0 mi North 5.8 mph - N/A   Overcast
12:55 PM 73.4 °F 41.0 °F 31% 30.26 in 10.0 mi WNW 4.6 mph - N/A   Overcast
1:15 PM 73.4 °F 39.2 °F 29% 30.26 in 10.0 mi West 5.8 mph - N/A   Overcast
1:35 PM 73.4 °F 39.2 °F 29% 30.25 in 10.0 mi WNW 11.5 mph 16.1 mph N/A   Overcast
1:55 PM 71.6 °F 42.8 °F 35% 30.26 in 10.0 mi WNW 11.5 mph 26.5 mph N/A   Overcast
2:15 PM 73.4 °F 41.0 °F 31% 30.25 in 10.0 mi SSW 13.8 mph 21.9 mph N/A   Overcast
2:35 PM 73.4 °F 41.0 °F 31% 30.25 in 10.0 mi SSW 6.9 mph - N/A   Overcast
2:55 PM 73.4 °F 41.0 °F 31% 30.24 in 10.0 mi SW 13.8 mph 18.4 mph N/A   Overcast
3:15 PM 71.6 °F 41.0 °F 33% 30.24 in 10.0 mi SW 16.1 mph 24.2 mph N/A   Overcast
3:35 PM 66.2 °F 44.6 °F 46% 30.25 in 10.0 mi WSW 19.6 mph 27.6 mph N/A Rain Light Rain
3:55 PM 62.6 °F 51.8 °F 68% 30.25 in 10.0 mi West 13.8 mph 19.6 mph 0.01 in Rain Light Rain
4:15 PM 64.4 °F 51.8 °F 64% 30.25 in 10.0 mi WNW 11.5 mph 17.3 mph N/A   Overcast
4:35 PM 60.8 °F 51.8 °F 72% 30.27 in 7.0 mi North - - 0.03 in Rain Heavy Rain
4:55 PM 59.0 °F 51.8 °F 77% 30.26 in 7.0 mi WNW 4.6 mph - 0.12 in Rain Rain
5:15 PM 59.0 °F 53.6 °F 82% 30.26 in 10.0 mi Calm Calm - 0.07 in Rain Light Rain
5:35 PM 59.0 °F 51.8 °F 77% 30.27 in 10.0 mi Calm Calm - 0.08 in Rain Light Rain
5:55 PM 59.0 °F 55.4 °F 88% 30.27 in 7.0 mi NNW 4.6 mph - 0.14 in Rain Heavy Rain
6:15 PM 59.0 °F 51.8 °F 77% 30.27 in 4.0 mi West 3.5 mph - 0.06 in Rain Rain
6:35 PM 57.2 °F 53.6 °F 88% 30.27 in 10.0 mi North 3.5 mph - 0.11 in Rain Light Rain
6:55 PM 59.0 °F 53.6 °F 82% 30.26 in 10.0 mi SW 3.5 mph - 0.11 in   Mostly Cloudy
7:15 PM 57.2 °F 55.4 °F 94% 30.27 in 10.0 mi NNW 3.5 mph - N/A   Mostly Cloudy
7:35 PM 55.4 °F 53.6 °F 94% 30.27 in 10.0 mi NNE 3.5 mph - N/A   Scattered Clouds
7:55 PM 55.4 °F 53.6 °F 94% 30.26 in 10.0 mi Calm Calm - N/A   Scattered Clouds
8:15 PM 55.4 °F 51.8 °F 88% 30.27 in 10.0 mi Calm Calm - N/A   Scattered Clouds
8:35 PM 55.4 °F 51.8 °F 88% 30.27 in 10.0 mi West 3.5 mph - N/A   Scattered Clouds
8:55 PM 55.4 °F 51.8 °F 88% 30.28 in 10.0 mi Calm Calm - N/A   Scattered Clouds
9:15 PM 51.8 °F 50.0 °F 94% 30.29 in 10.0 mi Calm Calm - N/A   Scattered Clouds
9:35 PM 51.8 °F 50.0 °F 94% 30.29 in 10.0 mi NNW 3.5 mph - N/A   Clear
9:55 PM 51.8 °F 50.0 °F 94% 30.30 in 10.0 mi Calm Calm - N/A   Clear
10:15 PM 50.0 °F 50.0 °F 100% 30.29 in 10.0 mi Calm Calm - N/A   Clear
10:35 PM 50.0 °F 48.2 °F 94% 30.29 in 10.0 mi Calm Calm - N/A   Clear
10:55 PM 50.0 °F 50.0 °F 100% 30.30 in 10.0 mi Calm Calm - N/A   Clear
11:15 PM 51.8 °F 50.0 °F 94% 30.29 in 10.0 mi Calm Calm - N/A   Clear
11:35 PM 48.2 °F 46.4 °F 93% 30.30 in 10.0 mi Calm Calm - N/A   Clear
11:55 PM 48.2 °F 48.2 °F 100% 30.30 in 10.0 mi Calm Calm - N/A   Clear